When you browse on this site, cookies collect data to enhance your experience and personalize the content and advertising you see.
Visit our Privacy Policy to learn more. By continuing to use the site, you agree to this use of cookies and data.
  • In Belgium
  • List of Countries
  • For 7 days
  • Water Temperature
  • Satellite Maps
  • Weather Map
  • Weather Widgets
  • user-avatar
    Login

    Hourly Weather Zagore

    Today, 26 May, Sunday

    Time Temperature Precipitation Wind Pressure Humidity
    00:00 +14°C° 0 mm 2 mps 741 mmHg 98%
    01:00 +14°C° 0 mm 2 mps 741 mmHg 98%
    02:00 +13°C° 0 mm 2 mps 741 mmHg 98%
    03:00 +13°C° 0 mm 2 mps 741 mmHg 97%
    04:00 +13°C° 0 mm 2 mps 741 mmHg 96%
    05:00 +14°C° 0 mm 2 mps 741 mmHg 96%
    06:00 +15°C° 0 mm 2 mps 741 mmHg 89%
    07:00 +17°C° 0 mm 2 mps 741 mmHg 83%
    08:00 +18°C° 0 mm 2 mps 741 mmHg 76%
    09:00 +19°C° 0.1 mm 2 mps 741 mmHg 68%
    10:00 +20°C° 0.1 mm 2 mps 741 mmHg 59%
    11:00 +23°C° 0.1 mm 2 mps 741 mmHg 51%
    12:00 +21°C° 0 mm 2 mps 741 mmHg 51%
    13:00 +21°C° 0 mm 2 mps 741 mmHg 51%
    14:00 +21°C° 0 mm 2 mps 740 mmHg 50%
    15:00 +21°C° 0 mm 2 mps 740 mmHg 51%
    16:00 +21°C° 0 mm 2 mps 740 mmHg 52%
    17:00 +21°C° 0 mm 2 mps 740 mmHg 53%
    18:00 +19°C° 0 mm 2 mps 740 mmHg 60%
    19:00 +17°C° 0 mm 2 mps 740 mmHg 68%
    20:00 +15°C° 0 mm 2 mps 740 mmHg 76%
    21:00 +14°C° 0 mm 2 mps 740 mmHg 78%
    22:00 +13°C° 0 mm 2 mps 740 mmHg 80%
    23:00 +12°C° 0 mm 2 mps 740 mmHg 83%

    Tomorrow, 27 May, Monday

    Time Temperature Precipitation Wind Pressure Humidity
    00:00 +11°C° 0 mm 3 mps 741 mmHg 84%
    01:00 +10°C° 0 mm 3 mps 741 mmHg 85%
    02:00 +10°C° 0 mm 3 mps 741 mmHg 86%
    03:00 +10°C° 0 mm 3 mps 741 mmHg 84%
    04:00 +11°C° 0 mm 4 mps 742 mmHg 82%
    05:00 +11°C° 0 mm 4 mps 742 mmHg 80%
    06:00 +12°C° 0 mm 4 mps 742 mmHg 74%
    07:00 +13°C° 0 mm 4 mps 743 mmHg 68%
    08:00 +14°C° 0 mm 4 mps 743 mmHg 62%
    09:00 +14°C° 0 mm 5 mps 743 mmHg 63%
    10:00 +15°C° 0 mm 5 mps 743 mmHg 64%
    11:00 +15°C° 0 mm 5 mps 744 mmHg 65%
    12:00 +16°C° 0 mm 5 mps 744 mmHg 64%
    13:00 +17°C° 0 mm 5 mps 744 mmHg 62%
    14:00 +19°C° 0 mm 5 mps 744 mmHg 61%
    15:00 +17°C° 0 mm 5 mps 744 mmHg 63%
    16:00 +17°C° 0 mm 5 mps 745 mmHg 66%
    17:00 +18°C° 0 mm 4 mps 745 mmHg 68%
    18:00 +18°C° 0 mm 4 mps 745 mmHg 73%
    19:00 +17°C° 0 mm 4 mps 745 mmHg 78%
    20:00 +16°C° 0 mm 3 mps 745 mmHg 82%
    21:00 +15°C° 0.1 mm 4 mps 745 mmHg 85%
    22:00 +15°C° 0.1 mm 4 mps 745 mmHg 87%
    23:00 +15°C° 0.1 mm 4 mps 745 mmHg 89%

    Day after tomorrow, 28 May, Tuesday

    Time Temperature Precipitation Wind Pressure Humidity
    00:00 +14°C° 0 mm 4 mps 745 mmHg 90%
    01:00 +14°C° 0 mm 3 mps 745 mmHg 91%
    02:00 +14°C° 0 mm 3 mps 746 mmHg 92%
    03:00 +14°C° 0 mm 3 mps 746 mmHg 91%
    04:00 +14°C° 0 mm 3 mps 746 mmHg 90%
    05:00 +16°C° 0 mm 3 mps 746 mmHg 88%
    06:00 +17°C° 0 mm 3 mps 747 mmHg 82%
    07:00 +19°C° 0 mm 3 mps 747 mmHg 75%
    08:00 +21°C° 0 mm 3 mps 747 mmHg 69%
    09:00 +22°C° 0 mm 3 mps 747 mmHg 64%
    10:00 +23°C° 0 mm 4 mps 747 mmHg 58%
    11:00 +26°C° 0 mm 4 mps 747 mmHg 53%
    12:00 +26°C° 0 mm 4 mps 747 mmHg 51%
    13:00 +27°C° 0 mm 4 mps 747 mmHg 48%
    14:00 +28°C° 0 mm 4 mps 747 mmHg 46%
    15:00 +27°C° 0 mm 4 mps 747 mmHg 51%
    16:00 +27°C° 0 mm 3 mps 747 mmHg 56%
    17:00 +26°C° 0 mm 3 mps 747 mmHg 61%
    18:00 +24°C° 0.2 mm 3 mps 747 mmHg 70%
    19:00 +22°C° 0.2 mm 3 mps 747 mmHg 78%
    20:00 +20°C° 0.2 mm 2 mps 747 mmHg 87%
    21:00 +19°C° 0 mm 3 mps 747 mmHg 88%
    22:00 +19°C° 0 mm 3 mps 747 mmHg 89%
    23:00 +19°C° 0 mm 3 mps 747 mmHg 90%

    29 May, Wednesday

    Time Temperature Precipitation Wind Pressure Humidity
    00:00 +18°C° 0 mm 4 mps 748 mmHg 90%
    01:00 +18°C° 0 mm 4 mps 748 mmHg 90%
    02:00 +18°C° 0 mm 4 mps 748 mmHg 90%
    03:00 +18°C° 0 mm 4 mps 748 mmHg 89%
    04:00 +18°C° 0 mm 4 mps 748 mmHg 88%
    05:00 +18°C° 0 mm 4 mps 748 mmHg 87%
    06:00 +20°C° 0 mm 4 mps 749 mmHg 80%
    07:00 +22°C° 0 mm 4 mps 749 mmHg 73%
    08:00 +25°C° 0 mm 4 mps 749 mmHg 66%
    09:00 +26°C° 0 mm 5 mps 749 mmHg 60%
    10:00 +27°C° 0 mm 5 mps 749 mmHg 53%
    11:00 +29°C° 0 mm 5 mps 749 mmHg 46%
    12:00 +29°C° 0 mm 5 mps 749 mmHg 46%
    13:00 +29°C° 0 mm 5 mps 749 mmHg 46%
    14:00 +30°C° 0 mm 5 mps 749 mmHg 45%
    15:00 +29°C° 0 mm 5 mps 749 mmHg 48%
    16:00 +29°C° 0 mm 4 mps 749 mmHg 51%
    17:00 +29°C° 0 mm 4 mps 748 mmHg 54%
    18:00 +27°C° 0 mm 4 mps 749 mmHg 61%
    19:00 +25°C° 0 mm 3 mps 749 mmHg 67%
    20:00 +24°C° 0 mm 3 mps 749 mmHg 74%
    21:00 +22°C° 0 mm 3 mps 749 mmHg 77%
    22:00 +21°C° 0 mm 3 mps 749 mmHg 79%
    23:00 +20°C° 0 mm 3 mps 749 mmHg 82%

    30 May, Thursday

    Time Temperature Precipitation Wind Pressure Humidity
    00:00 +20°C° 0 mm 3 mps 750 mmHg 86%
    01:00 +19°C° 0 mm 3 mps 750 mmHg 89%
    02:00 +18°C° 0 mm 3 mps 750 mmHg 92%
    03:00 +19°C° 0 mm 3 mps 750 mmHg 90%
    04:00 +19°C° 0 mm 3 mps 750 mmHg 88%
    05:00 +20°C° 0 mm 3 mps 750 mmHg 86%
    06:00 +21°C° 0 mm 4 mps 750 mmHg 78%
    07:00 +23°C° 0 mm 4 mps 750 mmHg 70%
    08:00 +26°C° 0 mm 4 mps 750 mmHg 62%
    09:00 +27°C° 0 mm 5 mps 750 mmHg 58%
    10:00 +27°C° 0 mm 5 mps 749 mmHg 54%
    11:00 +28°C° 0 mm 5 mps 749 mmHg 50%
    12:00 +29°C° 0 mm 5 mps 749 mmHg 48%
    13:00 +29°C° 0 mm 5 mps 749 mmHg 47%
    14:00 +30°C° 0 mm 5 mps 749 mmHg 45%
    15:00 +29°C° 0 mm 4 mps 749 mmHg 48%
    16:00 +29°C° 0 mm 4 mps 749 mmHg 50%
    17:00 +28°C° 0 mm 3 mps 749 mmHg 53%
    18:00 +26°C° 0.7 mm 3 mps 749 mmHg 64%
    19:00 +24°C° 0.7 mm 2 mps 749 mmHg 74%
    20:00 +21°C° 0.7 mm 1 mps 749 mmHg 85%
    21:00 +21°C° 0.1 mm 1 mps 749 mmHg 88%
    22:00 +19°C° 0.1 mm 2 mps 749 mmHg 90%
    23:00 +19°C° 0.1 mm 2 mps 749 mmHg 92%

    31 May, Friday

    Time Temperature Precipitation Wind Pressure Humidity
    00:00 +19°C° 0 mm 1 mps 749 mmHg 93%
    01:00 +19°C° 0 mm 1 mps 749 mmHg 94%
    02:00 +19°C° 0 mm 1 mps 749 mmHg 95%
    03:00 +19°C° 0.3 mm 1 mps 749 mmHg 95%
    04:00 +19°C° 0.3 mm 1 mps 749 mmHg 95%
    05:00 +19°C° 0.3 mm 1 mps 749 mmHg 95%
    06:00 +19°C° 0.4 mm 2 mps 750 mmHg 93%
    07:00 +19°C° 0.4 mm 2 mps 750 mmHg 92%
    08:00 +19°C° 0.4 mm 2 mps 750 mmHg 91%
    09:00 +19°C° 0.1 mm 2 mps 750 mmHg 88%
    10:00 +19°C° 0.1 mm 2 mps 750 mmHg 86%
    11:00 +19°C° 0.1 mm 2 mps 750 mmHg 83%
    12:00 +20°C° 0 mm 2 mps 750 mmHg 80%
    13:00 +20°C° 0 mm 2 mps 749 mmHg 77%
    14:00 +21°C° 0 mm 2 mps 749 mmHg 74%
    15:00 +21°C° 0 mm 2 mps 749 mmHg 74%
    16:00 +22°C° 0 mm 1 mps 749 mmHg 74%
    17:00 +22°C° 0 mm 1 mps 749 mmHg 75%
    18:00 +20°C° 0.2 mm 1 mps 749 mmHg 80%
    19:00 +18°C° 0.2 mm 2 mps 748 mmHg 86%
    20:00 +17°C° 0.2 mm 2 mps 748 mmHg 92%
    21:00 +16°C° 0.3 mm 2 mps 748 mmHg 93%
    22:00 +15°C° 0.3 mm 2 mps 748 mmHg 94%
    23:00 +15°C° 0.3 mm 2 mps 748 mmHg 95%
    Show more